カタログに戻る

THORAD AGENA D DEB

運用中LEO
NORAD 4214·DEBRIS·🇺🇸 United States

打ち上げ Sep 30, 1969 から Vandenberg Space Force Base

Loading…

次のパス (今後24時間)

TLE

最新Source: Space-Track

元期: Sep 13, 2026, 22:23 UTC

1  4214U 69082CD  26256.93326700  .00000677  00000-0  20236-3 0  9993
2  4214  70.0487 229.3605 0059500 288.9457  70.5232 14.46189122973060

AllMySatでTHORAD AGENA D DEBをリアルタイム追跡

Download on the App Store